Location: Amon Carter Post Office
(32.8281°N, 97.0484°W)
Time: 15:49:46
(UTC+00:00)

H-2A R/B - Pass Details

Date: 30 June 2022
Orbit: 576 x 652 km, 98.5° (Epoch: 14 August)

Event Time Altitude Azimuth Distance (km) Brightness Sun altitude
Rises 02:23:53 0° 17° (NNE) 2,929 5.8 -8.6°
Reaches altitude 10° 02:26:07 10° 22° (NNE) 2,027 4.9 -9.0°
Maximum altitude 02:30:28 57° 101° (ESE) 757 2.2 -9.7°
Drops below altitude 10° 02:34:52 10° 180° (S) 2,043 4.4 -10.5°
Sets 02:37:06 0° 185° (S) 2,953 5.2 -10.8°
